Stations météo

réclame
Mon MeteoGroup
Hastveda, Suède (2629): Température de l'air & dewpoint: 17.10.2018 07:00:00 - 23.10.2018 07:00:00 (CEST)Hastveda, Suède (2629): Vitesse du vent & gusts: 17.10.2018 07:00:00 - 23.10.2018 07:00:00 (CEST)Hastveda, Suède (2629): Direction du vent: 17.10.2018 07:00:00 - 23.10.2018 07:00:00 (CEST)Hastveda, Suède (2629): reduced air pressure: 17.10.2018 07:00:00 - 23.10.2018 07:00:00 (CEST)Hastveda, Suède (2629): visibility: 17.10.2018 07:00:00 - 23.10.2018 07:00:00 (CEST)Hastveda, Suède (2629): Quantités de précipitations: 17.10.2018 07:00:00 - 23.10.2018 07:00:00 (CEST)
Date & Time tt [°C] td [°C] ff [km/h] ff [knt] fx [km/h] fx [knt] dd ppp [hPa] vv [km] rr [mm]
23.10.2018 07:00:00 8,7 8,6 18 10 43 23 W 1000,0 6 5,0
23.10.2018 06:00:00 8,2 7,9 22 12 36 19 W 1002,4 4,8 4,0
23.10.2018 05:00:00 7,5 7,2 18 10 43 23 W 1004,7 7 3,0
23.10.2018 04:00:00 7,0 6,7 18 10 43 23 WSW 1007,3 7 2,0
23.10.2018 03:00:00 6,6 6,3 18 10 40 21 WSW 1010,3 9 2,0
23.10.2018 02:00:00 6,3 6,2 18 10 32 18 W 1013,6 3,9 4,0
23.10.2018 01:00:00 6,3 5,6 14 8 29 16 WSW 1015,9 9 0,7
23.10.2018 00:00:00 7,4 4,2 14 8 25 14 W 1017,4 18 0,0
22.10.2018 23:00:00 7,7 4,1 11 6 29 16 W 1019,1 20 0,0
22.10.2018 22:00:00 7,7 4,1 14 8 29 16 W 1020,2 21 0,0
22.10.2018 21:00:00 7,3 4,4 14 8 25 14 W 1021,0 20 0,0
22.10.2018 20:00:00 7,3 4,4 14 8 25 14 W 1021,4 23 0,0
22.10.2018 19:00:00 7,5 3,9 11 6 32 18 W 1022,0 23 0,0
22.10.2018 18:00:00 8,5 3,7 18 10 40 21 WNW 1022,2 26 0,0
22.10.2018 17:00:00 9,1 3,9 18 10 40 21 WNW 1022,0 28 0,0
22.10.2018 16:00:00 9,8 3,7 22 12 47 25 WNW 1022,4 29 0,0
22.10.2018 15:00:00 10,2 3,9 25 14 50 27 WNW 1021,7 27 0,0
22.10.2018 14:00:00 10,9 3,2 25 14 50 27 WNW 1021,8 30 0,0
22.10.2018 13:00:00 10,4 3,4 22 12 58 31 NW 1021,7 27 0,0
22.10.2018 12:00:00 10,3 3,3 32 18 54 29 NW 1021,7 29 0,0
22.10.2018 11:00:00 9,8 5,4 18 10 40 21 WNW 1021,6 30 0,0
22.10.2018 10:00:00 8,7 7,2 11 6 29 16 W 1021,2 20 0,0
22.10.2018 09:00:00 7,9 7,1 14 8 25 14 WNW 1020,9 20 0,0
22.10.2018 08:00:00 7,5 6,9 11 6 25 14 WNW 1020,5 17 0,0
22.10.2018 07:00:00 8,4 7,6 11 6 29 16 WNW 1020,0 20 0,0
22.10.2018 06:00:00 9,4 8,8 11 6 29 16 WNW 1019,7 19 0,0
22.10.2018 05:00:00 10,1 9,8 14 8 32 18 WNW 1019,2 35 0,2
22.10.2018 04:00:00 10,8 10,5 14 8 32 18 W 1019,1 4,7 1,0
22.10.2018 03:00:00 11,9 11,6 11 6 25 14 WSW 1018,8 1,4 0,2
22.10.2018 02:00:00 12,2 11,7 14 8 29 16 WSW 1019,1 2,8 0,0
22.10.2018 01:00:00 12,4 11,6 14 8 32 18 WSW 1019,6 3,7 0,0
22.10.2018 00:00:00 12,4 11,3 18 10 29 16 WSW 1019,9 5 0,0
21.10.2018 23:00:00 12,4 11,5 14 8 29 16 WSW 1020,4 5 0,0
21.10.2018 22:00:00 12,1 11,3 11 6 29 16 WSW 1020,9 4,9 0,0
21.10.2018 21:00:00 11,6 11,0 11 6 25 14 SW 1021,2 7 0,0
21.10.2018 20:00:00 11,5 10,7 7 4 22 12 SW 1021,9 15 0,0
21.10.2018 19:00:00 11,6 10,3 11 6 22 12 WSW 1022,2 30 0,0
21.10.2018 18:00:00 11,6 10,2 11 6 22 12 SW 1022,5 35 0,0
21.10.2018 17:00:00 11,8 10,4 11 6 22 12 SW 1022,8 35 0,0
21.10.2018 16:00:00 11,9 10,3 11 6 22 12 SW 1023,3 30 0,0
21.10.2018 15:00:00 11,8 10,0 11 6 22 12 WSW 1024,0 30 0,0
21.10.2018 14:00:00 11,8 9,9 11 6 22 12 WSW 1024,5 30 0,0
21.10.2018 13:00:00 11,0 9,9 11 6 22 12 SW 1025,3 28 0,0
21.10.2018 12:00:00 9,7 9,7 7 4 18 10 SW 1025,8 19 0,0
21.10.2018 11:00:00 7,7 7,7 11 6 18 10 WSW 1026,0 8 0,0
21.10.2018 10:00:00 6,0 6,0 7 4 14 8 SW 1026,1 7 0,0
21.10.2018 09:00:00 5,2 5,2 7 4 11 6 SW 1026,3 6 0,0
21.10.2018 08:00:00 4,2 4,2 7 4 11 6 WSW 1026,3 0,6 0,0
21.10.2018 07:00:00 4,1 4,1 7 4 11 6 SW 1026,0 1,0 0,0
21.10.2018 06:00:00 3,9 3,9 7 4 11 6 W 1026,6 0,6 0,0
21.10.2018 05:00:00 4,7 4,7 7 4 11 6 WSW 1026,6 7 0,0
21.10.2018 04:00:00 3,9 3,9 4 2 7 4 W 1026,7 0,6 0,0
21.10.2018 03:00:00 4,3 4,3 7 4 7 4 WSW 1026,4 0,6 0,0
21.10.2018 02:00:00 4,7 4,7 7 4 7 4 WSW 1026,3 0,4 0,0
21.10.2018 01:00:00 5,0 5,0 7 4 7 4 W 1026,3 1,8 0,0
21.10.2018 00:00:00 5,6 5,6 7 4 7 4 WNW 1026,6 2,0 0,0
20.10.2018 23:00:00 6,4 6,3 7 4 14 8 NW 1026,2 10 0,0
20.10.2018 22:00:00 6,1 6,0 11 6 11 6 WNW 1026,2 10 0,0
20.10.2018 21:00:00 6,6 6,5 7 4 11 6 W 1025,9 10 0,0
20.10.2018 20:00:00 7,4 7,1 7 4 14 8 WNW 1025,7 20 0,0
20.10.2018 19:00:00 8,2 7,4 7 4 22 12 WNW 1025,2 30 0,0
20.10.2018 18:00:00 10,1 8,0 14 8 25 14 WNW 1024,7 40 0,0
20.10.2018 17:00:00 10,8 8,9 11 6 25 14 WNW 1024,4 30 0,0
20.10.2018 16:00:00 10,8 9,9 4 2 14 8 W 1024,0 30 0,1
20.10.2018 15:00:00 11,0 9,3 7 4 14 8 W 1024,1 35 0,0
20.10.2018 14:00:00 10,1 9,0 7 4 14 8 W 1024,3 30 0,1
20.10.2018 13:00:00 9,6 8,8 7 4 14 8 W 1024,2 30 0,0
20.10.2018 12:00:00 9,0 8,1 7 4 18 10 WSW 1024,2 30 0,0
20.10.2018 11:00:00 7,9 7,3 7 4 14 8 W 1024,4 35 0,0
20.10.2018 10:00:00 7,4 7,0 7 4 14 8 W 1024,0 35 0,1
20.10.2018 09:00:00 6,6 6,2 4 2 14 8 W 1023,9 35 0,2
20.10.2018 08:00:00 6,6 5,9 7 4 14 8 WSW 1023,6 45 0,0
20.10.2018 07:00:00 6,4 5,7 11 6 14 8 WSW 1023,5 45 0,0
20.10.2018 06:00:00 6,5 5,9 7 4 11 6 WSW 1023,2 40 0,0
20.10.2018 05:00:00 7,0 6,3 7 4 11 6 W 1023,3 35 0,0
20.10.2018 04:00:00 6,9 6,5 7 4 11 6 WSW 1023,3 30 0,0
20.10.2018 03:00:00 6,9 6,8 7 4 14 8 W 1023,6 19 0,0
20.10.2018 02:00:00 6,4 6,3 7 4 11 6 W 1023,7 15 0,0
20.10.2018 01:00:00 6,2 5,9 7 4 14 8 W 1023,9 14 0,0
20.10.2018 00:00:00 6,0 5,9 7 4 14 8 WSW 1024,1 19 0,0
19.10.2018 23:00:00 5,1 4,8 7 4 11 6 W 1024,3 19 0,0
19.10.2018 22:00:00 5,1 4,8 7 4 11 6 W 1024,4 22 0,0
19.10.2018 21:00:00 5,5 4,9 7 4 11 6 WSW 1024,4 30 0,0
19.10.2018 20:00:00 6,4 5,3 7 4 11 6 W 1024,0 45 0,0
19.10.2018 19:00:00 7,0 5,1 7 4 11 6 W 1023,7 45 0,0
19.10.2018 18:00:00 8,1 5,0 7 4 7 4 WSW 1023,7 45 0,0
19.10.2018 17:00:00 9,8 5,8 4 2 11 6 WSW 1023,8 45 0,0
19.10.2018 16:00:00 9,4 5,6 7 4 11 6 W 1024,1 45 0,0
19.10.2018 15:00:00 11,8 6,1 4 2 14 8 W 1024,2 45 0,0
19.10.2018 14:00:00 11,3 6,4 7 4 14 8 W 1024,9 45 0,0
19.10.2018 13:00:00 10,1 6,6 4 2 11 6 W 1025,0 45 0,0
19.10.2018 12:00:00 8,1 6,7 4 2 7 4 W 1025,3 45 0,0
19.10.2018 11:00:00 4,9 4,9 0 0 7 4 N 1025,4 45 0,0
19.10.2018 10:00:00 3,0 3,0 4 2 7 4 N 1025,6 30 0,0
19.10.2018 09:00:00 2,5 2,4 4 2 11 6 N 1025,3 19 0,0
19.10.2018 08:00:00 1,5 1,5 7 4 11 6 N 1025,0 19 0,0
19.10.2018 07:00:00 1,2 1,2 4 2 7 4 N 1024,9 20 0,0
19.10.2018 06:00:00 0,9 0,9 7 4 7 4 NW 1024,6 19 0,0
19.10.2018 05:00:00 1,8 1,8 4 2 7 4 NNW 1024,8 30 0,0
19.10.2018 04:00:00 1,7 1,6 7 4 7 4 W 1024,6 1,4 0,0
19.10.2018 03:00:00 3,0 2,9 4 2 11 6 NNW 1024,4 12 0,0
19.10.2018 02:00:00 3,6 3,5 7 4 14 8 N 1024,4 30 0,0
19.10.2018 01:00:00 4,8 4,5 7 4 11 6 N 1024,5 30 0,0
19.10.2018 00:00:00 5,2 4,8 7 4 14 8 NNW 1024,5 30 0,0
18.10.2018 23:00:00 5,7 5,1 11 6 14 8 NW 1024,3 35 0,0
18.10.2018 22:00:00 6,5 5,6 11 6 14 8 NW 1024,0 45 0,0
18.10.2018 21:00:00 6,8 6,1 11 6 14 8 NW 1023,2 35 0,0
18.10.2018 20:00:00 7,4 6,3 11 6 14 8 WNW 1022,9 40 0,0
18.10.2018 19:00:00 8,7 6,8 7 4 18 10 W 1022,3 45 0,0
18.10.2018 18:00:00 10,8 7,3 7 4 25 14 WNW 1021,6 45 0,0
18.10.2018 17:00:00 12,8 8,3 11 6 22 12 WNW 1020,9 45 0,0
18.10.2018 16:00:00 14,2 8,4 11 6 25 14 NW 1020,6 40 0,0
18.10.2018 15:00:00 15,0 8,9 11 6 22 12 NW 1020,2 45 0,0
18.10.2018 14:00:00 14,9 8,6 11 6 25 14 NW 1020,1 45 0,0
18.10.2018 13:00:00 14,2 9,0 14 8 25 14 NW 1020,4 45 0,0
18.10.2018 12:00:00 13,1 11,2 11 6 22 12 NW 1020,5 30 0,0
18.10.2018 11:00:00 11,7 11,7 7 4 18 10 NW 1020,4 7 0,0
18.10.2018 10:00:00 11,7 11,7 11 6 18 10 NW 1020,0 2,8 0,0
18.10.2018 09:00:00 11,3 11,3 7 4 14 8 NW 1019,4 0,7 0,0
18.10.2018 08:00:00 10,2 10,2 7 4 11 6 WNW 1019,0 0,2 0,0
18.10.2018 07:00:00 9,4 9,4 4 2 7 4 W 1018,7 0,1 0,0
18.10.2018 06:00:00 9,3 9,3 4 2 7 4 SW 1018,5 0,8 0,0
18.10.2018 05:00:00 8,2 8,2 7 4 7 4 W 1018,9 2,0 0,0
18.10.2018 04:00:00 7,9 7,9 0 0 7 4 N 1019,0 1,0 0,0
18.10.2018 03:00:00 8,8 8,8 7 4 7 4 WSW 1019,0 1,5 0,0
18.10.2018 02:00:00 8,0 8,0 7 4 7 4 S 1019,1 1,0 0,0
18.10.2018 01:00:00 8,7 8,6 4 2 7 4 S 1019,5 0,8 0,0
18.10.2018 00:00:00 9,7 9,6 4 2 7 4 SSE 1019,7 0,4 0,0
17.10.2018 23:00:00 9,8 9,7 0 0 4 2 N 1019,9 0,3 0,0
17.10.2018 22:00:00 9,9 9,7 0 0 7 4 N 1019,9 0,5 0,0
17.10.2018 21:00:00 10,6 10,4 4 2 7 4 SSE 1019,8 1,2 0,0
17.10.2018 20:00:00 10,8 10,5 4 2 11 6 SE 1019,7 1,2 0,0
17.10.2018 19:00:00 12,7 12,2 7 4 11 6 SSE 1019,4 2,8 0,0
17.10.2018 18:00:00 14,2 13,6 7 4 11 6 SE 1019,3 4,1 0,0
17.10.2018 17:00:00 14,9 14,3 4 2 7 4 SE 1019,3 4,7 0,0
17.10.2018 16:00:00 15,4 14,9 4 2 7 4 SSE 1019,4 4,7 0,0
17.10.2018 15:00:00 14,0 13,8 4 2 7 4 E 1019,7 2,5 0,0
17.10.2018 14:00:00 13,4 13,4 4 2 7 4 E 1019,9 1,6 0,0
17.10.2018 13:00:00 12,8 12,8 4 2 11 6 SE 1020,0 0,8 0,0
17.10.2018 12:00:00 11,8 11,8 4 2 11 6 SSE 1020,5 0,3 0,0
17.10.2018 11:00:00 11,0 11,0 4 2 7 4 SE 1020,4 0,3 0,0
17.10.2018 10:00:00 10,4 10,4 4 2 7 4 SE 1020,3 0,2 0,0
17.10.2018 09:00:00 10,1 10,1 0 0 4 2 N 1020,1 0,1 0,0
17.10.2018 08:00:00 9,3 9,3 0 0 4 2 N 1020,1 - 0,0
17.10.2018 07:00:00 9,2 9,2 4 2 4 2 ESE 1019,9 0,1 0,0

tt = Température de l'air
td = dewpoint
ff = Vitesse du vent
fx = gusts
dd = Direction du vent
ppp = reduced air pressure
vv = visibility
rr = Quantités de précipitations

stations d'obs. à proximité